Flag for Canada Weather past 2 weeks in Moncton, New Brunswick, Canada

Now
63 °F

Partly sunny.


Feels Like: 63 °F
Forecast: 51 / 81 °F
Wind: 3 mph from East

Location: Moncton

Current Time: Jul 30, 2015 at 9:54:26 AM

Latest Report: Jul 30, 2015 at 9:00 AM


Visibility: 15 mi

Pressure: 29.93 "Hg

Humidity: 83%

Dew point: 57 °F

Location of MonctonLocation

Historic Weather in Moncton — Graph

°F

Moncton temperature yesterday

Maximum temperature yesterday: 75 °F (at 12:00 PM)
Minimum temperature yesterday: 57 °F (at 11:00 PM)
Average temperature yesterday: 66 °F

Past Weeks' High & Low Weather Summary

 TemperatureHumidityPressure
High79 °F (Jul 15, 1:00 PM)100% (Jul 19, 8:48 AM)30.09 "Hg (Jul 19, 8:48 AM)
Low48 °F (Jul 17, 5:00 AM)38% (Jul 17, 2:00 PM)29.53 "Hg (Jul 22, 1:00 PM)
Average62 °F85%29.86 "Hg
* Reported Jul 15 8:00 AM — Jul 30 8:00 AM, Moncton, Weather by CustomWeather, © 2015

Note: Actual official high and low records may vary slightly from our data, if they occured in-between our weather recording intervals... More about our weather records

Advertising

Moncton weather history for previous 24 hours

 ConditionsComfort  
Time TempWeatherWind HumidityBarometerVisibility
8:00 AM
Thu, Jul 30
61 °FOvercast.2 mph88%29.93 "Hg15 mi
7:00 AM59 °FPartly sunny.5 mph100%29.92 "Hg15 mi
6:00 AM59 °FMostly cloudy.3 mph100%29.91 "Hg10 mi
5:00 AM59 °FLow clouds.5 mph100%29.91 "Hg10 mi
4:00 AM59 °FLow clouds.No wind100%29.90 "Hg8 mi
3:00 AM57 °FFog.5 mph100%29.90 "Hg5 mi
2:56 AM57 °FFog.5 mph100%29.90 "Hg1 mi
2:00 AM57 °FFog.3 mph100%29.91 "Hg0 mi
1:00 AM55 °FPassing clouds.6 mph100%29.91 "Hg10 mi
12:00 AM57 °FPassing clouds.5 mph94%29.90 "Hg15 mi
11:00 PM
Wed, Jul 29
57 °FPassing clouds.5 mph94%29.90 "Hg15 mi
10:00 PM63 °FPassing clouds.3 mph88%29.90 "Hg15 mi
9:00 PM61 °FPassing clouds.6 mph88%29.89 "Hg15 mi
8:00 PM66 °FPassing clouds.7 mph73%29.89 "Hg15 mi
7:00 PM70 °FPassing clouds.12 mph64%29.88 "Hg15 mi
6:00 PM72 °FPassing clouds.9 mph61%29.88 "Hg15 mi
5:00 PM73 °FPartly sunny.10 mph61%29.87 "Hg15 mi
4:00 PM73 °FPartly sunny.9 mph65%29.88 "Hg15 mi
3:00 PM73 °FPartly sunny.15 mph65%29.87 "Hg15 mi
2:00 PM73 °FScattered clouds.9 mph65%29.87 "Hg15 mi
1:00 PM75 °FScattered clouds.8 mph61%29.86 "Hg15 mi
12:00 PM75 °FScattered clouds.7 mph50%29.87 "Hg15 mi
11:00 AM73 °FPassing clouds.10 mph57%29.88 "Hg15 mi
10:00 AM72 °FPassing clouds.6 mph65%29.88 "Hg15 mi
9:00 AM68 °FPassing clouds.9 mph73%29.88 "Hg15 mi
Weather by CustomWeather, © 2015

See weather overviewHow to use our weather pages